Showing default

GHGSAT-C6, 56204

Orbit data source: Space-Track

GHGSAT-C6, 56204 is a payload satellite owned by GHG (CA) in SSO that was launched on Sat, 15 Apr 2023 UTC via an FALCON 9 launch vehicle from the Air Force Western Test Range (AFWTR). Payload-class satellites include a variety of spacecraft equipped with specific instruments for various scientific and technological missions. These include communications satellites like Starlink; space stations such as the ISS; scientific satellites like the Hubble; Earth observation satellites from companies like Planet Labs, Umbra, and HawkEye 360; GPS; miniature CubeSats for education and research; and military/defense satellites.

Loading next visibility...
Identifier
56204, 2023-054AC
Orbit
SSO
Country
Flag of CACA
Related business
Manufacturer
UTIAS-SFL
Mission
Operational Commercial Science
Bus & Motor
NEMO-V1, Unknown motor
Mass
15 kg wet, 15 kg dry
Launch date (UTC)
2023-04-15 (2 years ago)
Launch vehicle
FALCON 9
Launch site
Air Force Western Test Range (AFWTR)
Object type
Payload
Rocket body
Debris
Shape & HBR
Box, 0.2 m
Radar Cross Section
0.100 m², Medium (>0.1 m² and < 1m²)

Expand to show TLE details & history
Last TLE update: 20 hours ago

TLE from 20 hours ago
0 GHGSAT-C6
1 56204U 23054AC  25241.23598772  .00014304  00000-0  32441-3 0  9997
2 56204  97.3212 142.6675 0009932  38.5784 321.6172 15.43126726133288
Epoch: 2025-08-29T05:39Z
TLE epoch observation values (Epoch: 2025-08-29T05:39:49.339Z)
Latitude
0.00003°
Longitude
80.02438°
Altitude
434.708 km
Speed
7.654 km/s
True Right ascension
09h 30m 40s
True Declination
0° 00' 00"
Sunlit
Object was in daylight at epoch
Visualization orbit readout
Latitude
Unknown
Longitude
Unknown
Altitude
Unknown
Speed
Unknown
Apparent Right ascension
Unknown
Apparent Declination
Unknown
Sunlit
N/A
Visualization observer readout
Local Sidereal Time
16:53:34
Azimuth
Unknown
Elevation
Unknown
Doppler factor
Unknown
Orbital elements
Apogee altitude
440.585 km
Perigee altitude
427.054 km
Semi-major axis
6,811.956 km
Eccentricity
0.00099
Inclination
97.3212°
RAAN
142.6675°
Arg. of periapsis
38.5784°
True anomaly
321.54646°
Mean anomaly
321.6172°
Eccentric anomaly
321.58184°
Mean motion
3.86043 °/min
Orbital period
93.25 mins
BSTAR
0.00032441
Loading maneuver chart data...
Computing Atmospheric mass density...
Loading historical data...
Loading historical data...
Loading historical data...
Loading historical data...
Loading historical data...
Loading historical data...
Loading historical data...

Documentation

Showing up to 5 results
|